When you browse on this site, cookies collect data to enhance your experience and personalize the content and advertising you see.
Visit our Privacy Policy to learn more. By continuing to use the site, you agree to this use of cookies and data.
  • en France
  • Liste des pays
  • À 7 jours
  • Température de l'eau
  • Carte satellitaire
  • Carte météo
  • Widgets météo
  • user-avatar
    Se connecter

    Météo par heure à Ayorou

    Ce jour, 18 Novembre, Dimanche

    Heure Température Précipitation Vent Pression Humidité
    00:00 +30°C° 0 mm 3 m/s 738 mmHg 12%
    01:00 +30°C° 0 mm 3 m/s 738 mmHg 13%
    02:00 +29°C° 0 mm 3 m/s 738 mmHg 13%
    03:00 +29°C° 0 mm 3 m/s 738 mmHg 14%
    04:00 +29°C° 0 mm 3 m/s 738 mmHg 14%
    05:00 +28°C° 0 mm 3 m/s 738 mmHg 15%
    06:00 +28°C° 0 mm 3 m/s 738 mmHg 15%
    07:00 +30°C° 0 mm 3 m/s 739 mmHg 14%
    08:00 +33°C° 0 mm 4 m/s 739 mmHg 12%
    09:00 +35°C° 0 mm 4 m/s 740 mmHg 11%
    10:00 +36°C° 0 mm 4 m/s 739 mmHg 10%
    11:00 +37°C° 0 mm 4 m/s 739 mmHg 9%
    12:00 +39°C° 0 mm 3 m/s 739 mmHg 8%
    13:00 +39°C° 0 mm 3 m/s 738 mmHg 8%
    14:00 +39°C° 0 mm 2 m/s 737 mmHg 8%
    15:00 +39°C° 0 mm 1 m/s 737 mmHg 8%
    16:00 +37°C° 0 mm 1 m/s 737 mmHg 8%
    17:00 +36°C° 0 mm 1 m/s 737 mmHg 9%
    18:00 +34°C° 0 mm 1 m/s 737 mmHg 10%
    19:00 +35°C° 0 mm 2 m/s 737 mmHg 10%
    20:00 +34°C° 0 mm 2 m/s 738 mmHg 11%
    21:00 +34°C° 0 mm 2 m/s 738 mmHg 11%
    22:00 +33°C° 0 mm 3 m/s 738 mmHg 11%
    23:00 +33°C° 0 mm 3 m/s 738 mmHg 12%

    Demain, 19 Novembre, Lundi

    Heure Température Précipitation Vent Pression Humidité
    00:00 +31°C° 0 mm 3 m/s 738 mmHg 12%
    01:00 +31°C° 0 mm 3 m/s 738 mmHg 13%
    02:00 +30°C° 0 mm 3 m/s 737 mmHg 13%
    03:00 +30°C° 0 mm 3 m/s 737 mmHg 13%
    04:00 +30°C° 0 mm 3 m/s 737 mmHg 14%
    05:00 +29°C° 0 mm 3 m/s 737 mmHg 14%
    06:00 +29°C° 0 mm 3 m/s 737 mmHg 14%
    07:00 +32°C° 0 mm 4 m/s 738 mmHg 13%
    08:00 +34°C° 0 mm 4 m/s 739 mmHg 12%
    09:00 +36°C° 0 mm 4 m/s 739 mmHg 11%
    10:00 +37°C° 0 mm 4 m/s 739 mmHg 10%
    11:00 +38°C° 0 mm 3 m/s 738 mmHg 9%
    12:00 +40°C° 0 mm 3 m/s 738 mmHg 8%
    13:00 +40°C° 0 mm 2 m/s 737 mmHg 8%
    14:00 +40°C° 0 mm 1 m/s 737 mmHg 8%
    15:00 +37°C° 0 mm 0 m/s 736 mmHg 8%
    16:00 +39°C° 0 mm 1 m/s 736 mmHg 9%
    17:00 +37°C° 0 mm 1 m/s 736 mmHg 10%
    18:00 +37°C° 0 mm 2 m/s 737 mmHg 11%
    19:00 +36°C° 0 mm 2 m/s 737 mmHg 11%
    20:00 +36°C° 0 mm 2 m/s 738 mmHg 11%
    21:00 +35°C° 0 mm 3 m/s 738 mmHg 11%
    22:00 +35°C° 0 mm 3 m/s 738 mmHg 11%
    23:00 +34°C° 0 mm 3 m/s 738 mmHg 11%

    Après-demain, 20 Novembre, Mardi

    Heure Température Précipitation Vent Pression Humidité
    00:00 +34°C° 0 mm 3 m/s 738 mmHg 12%
    01:00 +33°C° 0 mm 3 m/s 738 mmHg 12%
    02:00 +33°C° 0 mm 3 m/s 737 mmHg 13%
    03:00 +32°C° 0 mm 4 m/s 737 mmHg 14%
    04:00 +30°C° 0 mm 4 m/s 737 mmHg 16%
    05:00 +29°C° 0 mm 4 m/s 738 mmHg 18%
    06:00 +29°C° 0 mm 4 m/s 738 mmHg 20%
    07:00 +30°C° 0 mm 4 m/s 739 mmHg 19%
    08:00 +33°C° 0 mm 5 m/s 739 mmHg 18%
    09:00 +34°C° 0 mm 5 m/s 740 mmHg 17%
    10:00 +36°C° 0 mm 5 m/s 740 mmHg 15%
    11:00 +38°C° 0 mm 4 m/s 739 mmHg 12%
    12:00 +40°C° 0 mm 4 m/s 739 mmHg 9%
    13:00 +40°C° 0 mm 3 m/s 738 mmHg 9%
    14:00 +40°C° 0 mm 3 m/s 737 mmHg 8%
    15:00 +40°C° 0 mm 2 m/s 737 mmHg 8%
    16:00 +39°C° 0 mm 2 m/s 737 mmHg 9%
    17:00 +38°C° 0 mm 2 m/s 737 mmHg 9%
    18:00 +37°C° 0 mm 2 m/s 737 mmHg 10%
    19:00 +36°C° 0 mm 3 m/s 738 mmHg 10%
    20:00 +36°C° 0 mm 3 m/s 739 mmHg 10%
    21:00 +35°C° 0 mm 3 m/s 739 mmHg 11%
    22:00 +34°C° 0 mm 4 m/s 739 mmHg 11%
    23:00 +33°C° 0 mm 4 m/s 739 mmHg 11%

    21 Novembre, Mercredi

    Heure Température Précipitation Vent Pression Humidité
    00:00 +33°C° 0 mm 4 m/s 739 mmHg 12%
    01:00 +32°C° 0 mm 4 m/s 739 mmHg 12%
    02:00 +32°C° 0 mm 4 m/s 738 mmHg 12%
    03:00 +30°C° 0 mm 4 m/s 738 mmHg 12%
    04:00 +30°C° 0 mm 4 m/s 738 mmHg 12%
    05:00 +29°C° 0 mm 4 m/s 738 mmHg 12%
    06:00 +29°C° 0 mm 4 m/s 738 mmHg 12%
    07:00 +32°C° 0 mm 5 m/s 739 mmHg 11%
    08:00 +34°C° 0 mm 6 m/s 740 mmHg 10%
    09:00 +35°C° 0 mm 7 m/s 740 mmHg 8%
    10:00 +38°C° 0 mm 6 m/s 740 mmHg 8%
    11:00 +40°C° 0 mm 6 m/s 739 mmHg 7%
    12:00 +41°C° 0 mm 6 m/s 739 mmHg 6%
    13:00 +42°C° 0 mm 5 m/s 738 mmHg 6%
    14:00 +42°C° 0 mm 5 m/s 738 mmHg 6%
    15:00 +42°C° 0 mm 4 m/s 737 mmHg 6%
    16:00 +41°C° 0 mm 4 m/s 737 mmHg 7%
    17:00 +38°C° 0 mm 4 m/s 738 mmHg 7%
    18:00 +37°C° 0 mm 4 m/s 738 mmHg 8%
    19:00 +36°C° 0 mm 4 m/s 738 mmHg 8%
    20:00 +35°C° 0 mm 4 m/s 739 mmHg 8%
    21:00 +34°C° 0 mm 4 m/s 739 mmHg 9%
    22:00 +34°C° 0 mm 4 m/s 739 mmHg 9%
    23:00 +33°C° 0 mm 4 m/s 739 mmHg 9%

    22 Novembre, Jeudi

    Heure Température Précipitation Vent Pression Humidité
    00:00 +33°C° 0 mm 4 m/s 739 mmHg 9%
    01:00 +32°C° 0 mm 4 m/s 738 mmHg 10%
    02:00 +30°C° 0 mm 4 m/s 738 mmHg 10%
    03:00 +30°C° 0 mm 4 m/s 738 mmHg 10%
    04:00 +29°C° 0 mm 4 m/s 738 mmHg 10%
    05:00 +29°C° 0 mm 4 m/s 738 mmHg 10%
    06:00 +29°C° 0 mm 4 m/s 739 mmHg 11%
    07:00 +30°C° 0 mm 5 m/s 739 mmHg 10%
    08:00 +33°C° 0 mm 5 m/s 740 mmHg 9%
    09:00 +34°C° 0 mm 6 m/s 740 mmHg 8%
    10:00 +36°C° 0 mm 6 m/s 740 mmHg 7%
    11:00 +38°C° 0 mm 6 m/s 739 mmHg 7%
    12:00 +40°C° 0 mm 6 m/s 739 mmHg 6%
    13:00 +40°C° 0 mm 6 m/s 738 mmHg 6%
    14:00 +41°C° 0 mm 6 m/s 738 mmHg 6%
    15:00 +41°C° 0 mm 6 m/s 737 mmHg 5%
    16:00 +39°C° 0 mm 5 m/s 737 mmHg 6%
    17:00 +37°C° 0 mm 4 m/s 738 mmHg 6%
    18:00 +35°C° 0 mm 3 m/s 738 mmHg 7%
    19:00 +35°C° 0 mm 3 m/s 738 mmHg 7%
    20:00 +34°C° 0 mm 3 m/s 739 mmHg 7%
    21:00 +34°C° 0 mm 3 m/s 739 mmHg 8%
    22:00 +33°C° 0 mm 3 m/s 739 mmHg 8%
    23:00 +33°C° 0 mm 3 m/s 739 mmHg 8%

    23 Novembre, Vendredi

    Heure Température Précipitation Vent Pression Humidité
    00:00 +31°C° 0 mm 3 m/s 739 mmHg 9%
    01:00 +30°C° 0 mm 4 m/s 738 mmHg 9%
    02:00 +30°C° 0 mm 4 m/s 738 mmHg 9%
    03:00 +29°C° 0 mm 4 m/s 738 mmHg 10%
    04:00 +29°C° 0 mm 4 m/s 738 mmHg 10%
    05:00 +28°C° 0 mm 4 m/s 739 mmHg 11%
    06:00 +28°C° 0 mm 4 m/s 739 mmHg 11%
    07:00 +30°C° 0 mm 5 m/s 739 mmHg 10%
    08:00 +33°C° 0 mm 6 m/s 740 mmHg 9%
    09:00 +35°C° 0 mm 7 m/s 740 mmHg 8%
    10:00 +38°C° 0 mm 7 m/s 740 mmHg 8%
    11:00 +39°C° 0 mm 7 m/s 739 mmHg 7%
    12:00 +41°C° 0 mm 7 m/s 739 mmHg 6%
    13:00 +41°C° 0 mm 6 m/s 738 mmHg 6%
    14:00 +41°C° 0 mm 6 m/s 738 mmHg 6%
    15:00 +41°C° 0 mm 6 m/s 737 mmHg 6%
    16:00 +40°C° 0 mm 5 m/s 737 mmHg 7%
    17:00 +37°C° 0 mm 4 m/s 737 mmHg 8%
    18:00 +36°C° 0 mm 3 m/s 738 mmHg 8%
    19:00 +35°C° 0 mm 3 m/s 738 mmHg 9%
    20:00 +34°C° 0 mm 3 m/s 738 mmHg 9%
    21:00 +33°C° 0 mm 3 m/s 739 mmHg 10%
    22:00 +33°C° 0 mm 3 m/s 739 mmHg 10%
    23:00 +31°C° 0 mm 3 m/s 738 mmHg 10%
    Voir plus